Miscellaneous Local Product
Issued by NWS North Platte, NE

Home | Current Version | Previous Version | Text Only | Print | Product List | Glossary On
Versions: 1 2 3 4 5 6 7 8 9 10 11 12 13 14 15 16 17 18 19 20 21 22 23 24 25 26 27 28 29 30 31 32 33 34 35 36 37 38 39 40 41 42 43 44 45 46 47 48 49 50
000
AXUS43 KLBF 022210
MISLBF


WESTERN AND NORTH CENTRAL NEBRASKA HOURLY WEATHER ROUNDUP
NATIONAL WEATHER SERVICE NORTH PLATTE NE
500 PM CDT SUN AUG 02 2015

***STATIONS NOT REPORTING VARIABLES SUCH AS SKY/WEATHER OR
PRESSURE ARE PROVIDED BY THE NEBRASKA DEPARTMENT OF
ROADS...RAWS...AND APRS NETWORKS...AND ARE NOT UNDER
NATIONAL WEATHER SERVICE QUALITY CONTROL***

...OBSERVATIONS IN AND NEAR THE EASTERN PANHANDLE OF NEBRASKA...

CITY           SKY/WX    TMP DP  RH WIND       PRES   REMARKS
PINE RIDGE     SUNNY     88  53  30 E12       29.97F
CHADRON        SUNNY     93  57  29 NE14      29.95F HX  91
ALLIANCE       PTSUNNY   92  49  22 W17       29.97F
SIDNEY         PTSUNNY   90  47  22 SE14      30.00F
BIG SPRINGS      N/A     90  65  43 NE3         N/A  HX  92
$$

...OBSERVATIONS IN NORTH CENTRAL NEBRASKA...

CITY           SKY/WX    TMP DP  RH WIND       PRES   REMARKS
THEDFORD       PTSUNNY   94  56  28 S8        29.92S HX  92
AINSWORTH      SUNNY     88  60  39 NE7       29.94S
O`NEILL        SUNNY     88  62  42 NE14      29.89S
ORD            PTSUNNY   86  69  56 NE7       29.85R HX  90
BROKEN BOW     TSTM      78  61  55 N12       29.91R
SPRINGVIEW       N/A     87  61  41 E6          N/A
CHAMBERS         N/A     91  59  34 NE8         N/A  HX  90
EWING            N/A     89  70  53 NE3         N/A  HX  94
$$

...OBSERVATIONS IN SOUTHWEST NEBRASKA AND FAR NORTHEAST COLORADO...

CITY           SKY/WX    TMP DP  RH WIND       PRES   REMARKS
WRAY           MOCLDY    99  41  13 E6        29.95F HX  94
HOLYOKE        FAIR      95  41  15 CALM      29.96S HX  91
IMPERIAL       PTSUNNY   97  49  19 SE7       29.92F HX  94
OGALLALA       MOSUNNY   92  52  25 CALM      29.93S
NORTH PLATTE   PTSUNNY   78  55  44 SE12      29.93S
MCCOOK         MOSUNNY   99  50  19 E9        29.88S HX  96
LEXINGTON      PTSUNNY   88  48  24 W14G20    29.88F
PAXTON           N/A     96  60  30 S6          N/A  HX  96
BRADY            N/A     74  60  60 CALM        N/A
CALLAWAY         N/A     83  68  59 W6          N/A
$$

...NORTH PLATTE AREA...

CITY           SKY/WX    TMP DP  RH WIND       PRES   REMARKS
AIRPORT        PTSUNNY   78  55  44 SE12      29.93S
DOWNTOWN         N/A     86  56  35 E5G12       N/A
SANDRIDGE        N/A     86  55  34 E8G16       N/A
HILLCREST        N/A     78  54  42 E13G20      N/A
$$

...SOME WEATHER OBSERVATIONS FROM AROUND THE REGION...

CITY           SKY/WX    TMP DP  RH WIND       PRES   REMARKS
DENVER         CLOUDY    81  47  30 SW20G35   30.08R
LARAMIE        MOSUNNY   82  37  20 SE15      30.19F
CHEYENNE       MOSUNNY   87  41  19 SE8       30.13F
SCOTTSBLUFF    PTSUNNY   91  51  25 NE8       29.96F
RAPID CITY     SUNNY     86  53  32 NE5       29.99F
PIERRE         SUNNY     89  52  28 N9        29.89F
WINNER         FAIR      89  57  33 NE9       29.91S
SIOUX FALLS    SUNNY     85  62  46 NW10      29.84S
OMAHA          MOSUNNY   95  72  47 W12       29.78R HX 103
GRAND ISLAND   PTSUNNY   89  70  53 S6        29.86S HX  94
KANSAS CITY    SUNNY     89  71  55 SW15      29.85F HX  95
WICHITA        MOSUNNY   90  69  50 S12       29.89F HX  94
HAYS           MOSUNNY   93  63  36 SE10      29.87F HX  94
LIBERAL        MOSUNNY   91  66  43 SE10      29.92F HX  94
GOODLAND       SUNNY     94  46  19 VRB7      29.96F HX  90
$$



USA.gov is the U.S. government's official web portal to all federal, state and local government web resources and services.